Home   Weather   Langen   Past weeks

Flag for Germany Past Weather in Langen, Hesse, Germany — Yesterday and Last 2 Weeks

Now
52 °F

Partly sunny.


Feels Like: 51 °F
Forecast: 46 / 55 °F
Wind: 5 mph from Northeast

Location: Frankfurt-M-Flughafen Airport

Current Time: May 1, 2017 at 8:48:45 am

Latest Report: May 1, 2017 at 8:20 am


Visibility: N/A

Pressure: 29.77 "Hg

Humidity: 62%

Dew Point: 39 °F

Location of LangenLocation

Past Weather in Langen — Graph

°F

Langen Temperature Yesterday

Maximum temperature yesterday: 68 °F (at 4:50 pm)
Minimum temperature yesterday: 41 °F (at 5:50 am)
Average temperature yesterday: 55 °F

High & Low Weather Summary for the Past Weeks

 TemperatureHumidityPressure
High68 °F (Apr 30, 4:50 pm)100% (Apr 17, 10:20 am)30.60 "Hg (Apr 17, 10:20 am)
Low27 °F (Apr 20, 4:20 am)24% (Apr 26, 4:20 pm)29.68 "Hg (Apr 25, 3:50 am)
Average47 °F58%30.10 "Hg
* Reported Apr 16 7:20 am — May 1 7:50 am, Langen, Weather by CustomWeather, © 2017

Note: Actual official high and low records may vary slightly from our data, if they occured in-between our weather recording intervals... More about our weather records

Advertising

Langen Weather History for the Previous 24 Hours

Scroll right to see more
 ConditionsComfort  
Time TempWeatherWind HumidityBarometerVisibility
7:50 am
Mon, May 1
52 °FSunny.6 mph58%29.77 "Hg10 mi
7:20 am52 °FSunny.8 mph58%29.77 "Hg10 mi
6:50 am50 °FSunny.6 mph62%29.74 "Hg10 mi
6:20 am50 °FSunny.8 mph62%29.74 "Hg10 mi
5:50 am50 °FClear.8 mph62%29.74 "Hg10 mi
5:20 am50 °FClear.9 mph62%29.74 "Hg10 mi
4:50 am52 °FClear.7 mph58%29.74 "Hg10 mi
4:20 am52 °FClear.7 mph58%29.74 "Hg10 mi
3:50 am52 °FClear.7 mph58%29.71 "Hg10 mi
3:20 am52 °FClear.9 mph58%29.71 "Hg10 mi
2:20 am52 °FClear.8 mph58%29.71 "Hg10 mi
1:50 am54 °FClear.6 mph54%29.71 "Hg10 mi
12:50 am52 °FClear.10 mph58%29.71 "Hg10 mi
12:20 am54 °FClear.10 mph54%29.71 "Hg10 mi
11:50 pm
Sun, Apr 30
55 °FClear.13 mph51%29.71 "Hg10 mi
11:20 pm55 °FClear.12 mph51%29.74 "Hg10 mi
10:50 pm55 °FClear.13 mph47%29.74 "Hg10 mi
10:20 pm59 °FClear.9 mph45%29.74 "Hg10 mi
9:50 pm59 °FClear.10 mph42%29.74 "Hg10 mi
9:20 pm61 °FClear.10 mph39%29.74 "Hg10 mi
8:50 pm61 °FClear.10 mph39%29.74 "Hg10 mi
8:20 pm63 °FSunny.12 mph34%29.74 "Hg10 mi
7:50 pm64 °FSunny.17 mph32%29.71 "Hg10 mi
7:20 pm64 °FSunny.17 mph32%29.74 "Hg10 mi
6:50 pm64 °FSunny.17 mph32%29.74 "Hg10 mi
6:20 pm66 °FPassing clouds.17 mph30%29.74 "HgN/A
5:50 pm66 °FPassing clouds.18 mph30%29.77 "HgN/A
5:20 pm66 °FSunny.20 mph30%29.77 "Hg10 mi
4:50 pm68 °FPassing clouds.17 mph30%29.77 "HgN/A
4:20 pm66 °FPassing clouds.21 mph32%29.80 "HgN/A
3:50 pm66 °FPassing clouds.20 mph32%29.80 "HgN/A
3:20 pm64 °FSunny.16 mph34%29.83 "Hg10 mi
2:50 pm64 °FSunny.21 mph32%29.83 "Hg10 mi
2:20 pm64 °FSunny.20 mph32%29.86 "Hg10 mi
1:50 pm64 °FPassing clouds.17 mph32%29.86 "HgN/A
1:20 pm63 °FPassing clouds.18 mph34%29.89 "HgN/A
12:50 pm61 °FPassing clouds.14 mph36%29.89 "HgN/A
12:20 pm61 °FPassing clouds.15 mph36%29.92 "HgN/A
11:50 am59 °FPassing clouds.17 mph42%29.92 "HgN/A
11:20 am59 °FPassing clouds.17 mph42%29.92 "HgN/A
10:50 am57 °FPassing clouds.20 mph44%29.95 "HgN/A
10:20 am55 °FPassing clouds.17 mph51%29.95 "HgN/A
9:50 am54 °FSunny.13 mph54%29.98 "Hg10 mi
9:20 am52 °FSunny.13 mph54%29.98 "Hg10 mi
8:50 am48 °FSunny.13 mph62%29.98 "Hg10 mi
8:20 am46 °FSunny.12 mph62%29.98 "Hg10 mi
Weather by CustomWeather, © 2017

See weather overviewHow to use our weather pages